FENGYUN 1C DEB, 32192

Orbit data source: Space-Track

FENGYUN 1C DEB, 32192 is space debris in SSO originally from a launch on Mon, 10 May 1999 UTC launched from the Taiyaun Space Center, China (TSC). Fengyun 1C debris stems from the Chinese weather satellite Fengyun-1C, which was intentionally destroyed by a Chinese anti-satellite missile in 2007. This event dramatically increased the amount of space debris, with thousands of trackable fragments posing hazards to satellites and human spaceflight. The Fengyun 1C debris cloud has become a focal point in discussions about space sustainability and the need for international regulations to prevent the creation of new debris.

Loading next visibility...
Identifier
32192, 1999-025CUN
Orbit
SSO
Country
Flag of CNCN / PRC
Related business
Manufacturer
Unknown
Mission
Spacecraft
Bus & Motor
Unknown
Mass
Unknown
Launch date (UTC)
1999-05-10 (27 years ago)
Launch vehicle
Unknown
Launch site
Taiyaun Space Center, China (TSC)
Object type
Payload
Rocket body
Debris
Shape & HBR
Unknown shape, 0.1 m
Radar Cross Section
Small (<0.1 m²)

Expand to show TLE details & history
Last TLE update: 3 days ago

TLE from 3 days ago
0 FENGYUN 1C DEB
1 32192U 99025CUN 26235.87067949  .00000220  00000-0  21054-3 0  9999
2 32192  98.6235  90.9269 0180882 192.5953 167.0652 13.82687228962245
Epoch: 2026-08-23T20:53Z
TLE epoch observation values (Epoch: 2026-08-23T20:53:46.707Z)
Latitude
-0.00004°
Longitude
165.32177°
Altitude
1,086.646 km
Speed
7.244 km/s
True Right ascension
06h 03m 42s
True Declination
0° 00' 00"
Sunlit
Object was in daylight at epoch
Visualization orbit readout
Latitude
Unknown
Longitude
Unknown
Altitude
Unknown
Speed
Unknown
Apparent Right ascension
Unknown
Apparent Declination
Unknown
Sunlit
N/A
Visualization observer readout
Local Sidereal Time
00:33:29
Azimuth
Unknown
Elevation
Unknown
Doppler factor
Unknown
Orbital elements
Apogee altitude
1,084.156 km
Perigee altitude
818.993 km
Semi-major axis
7,329.711 km
Eccentricity
0.01809
Inclination
98.6235°
RAAN
90.9269°
Arg. of periapsis
192.5953°
True anomaly
167.51915°
Mean anomaly
167.0652°
Eccentric anomaly
167.29316°
Mean motion
3.4587 °/min
Orbital period
104.09 mins
BSTAR
0.00021054
Loading maneuver chart data...
Computing Atmospheric mass density...
Loading historical data...
Loading historical data...
Loading historical data...
Loading historical data...
Loading historical data...
Loading historical data...
Loading historical data...

Documentation

Showing up to 5 results
|